Voltar ao catálogo

STARLINK-32430

AtivoComunicaçõesVLEO
NORAD 62207·PAYLOAD·🇺🇸 United States

Lançado Dec 4, 2024 de Cape Canaveral Space Force Station

Loading…

Próximas Passagens (próximas 24 horas)

TLE

AtualizadoSource: CelesTrak SupGP

Época: Sep 14, 2026, 21:32 UTC

1 62207C 24229R   26257.89770833  .00016104  00000+0  58338-3 0  2571
2 62207  42.9999 278.8833 0001522 263.9600 191.6082 15.27565351    14

Acompanhe STARLINK-32430 em tempo real com AllMySat

Download on the App Store